AFOTEC-1 (FALCON ODE) (44225 NORAD) Tracking and Keplerian Element Data

This shows tracking and keplerian element data for the satellite.

Feedback or suggestion? Click here.




ElementValue
Catalog44225
NameAFOTEC-1 (FALCON ODE)
Epoch Orbit451
Epoch Day154.9637724
Epoch Year2019
RAAN61.6775
Inclination40.0202
Eccentricity0.0005478
Argument of Perigee137.6504
Mean Anonmoly222.472
Mean Motion15.20222779
Decay Rate6.24E-06
L11 44225U 19026A 19154.96377240 .00000624 00000-0 36332-4 0 9996
L22 44225 40.0202 61.6775 0005478 137.6504 222.4720 15.20222779 4515

Live tracking and technical data element details for AFOTEC-1 (FALCON ODE) (NORAD 44225). AFOTEC-1 (FALCON ODE) can be tracked NOW for your location showing map with azimuth and elevation plus other details from your city location.

Track the satellite on the map from your city or location and see movement details for azimuth, elevation, latitude, longitude, range, height, and movement on the map or in text.







IsCatalogInMostPopularTable: catalog: 44225, numindb: 17
Update: records affected: 1



GetName: 44225 AFOTEC-1 (FALCON ODE)

Hit Count: updated at: Tue, 16 Jul 2019 21:12:03 GMT